When you browse on this site, cookies collect data to enhance your experience and personalize the content and advertising you see.
Visit our Privacy Policy to learn more. By continuing to use the site, you agree to this use of cookies and data.
  • en Suisse
  • Liste des pays
  • À 7 jours
  • Température de l'eau
  • Carte météo
  • Widgets météo
  • user-avatar
    Se connecter

    Météo par heure à Naftalan

    Ce jour, 26 Mai, Mardi

    Heure Température Précipitation Vent Pression Humidité
    00:00 +16°C° 0 mm 2 m/s 762 mmHg 74%
    01:00 +16°C° 0 mm 2 m/s 762 mmHg 75%
    02:00 +14°C° 0 mm 3 m/s 762 mmHg 76%
    03:00 +14°C° 0 mm 4 m/s 763 mmHg 77%
    04:00 +15°C° 0 mm 5 m/s 763 mmHg 72%
    05:00 +16°C° 0 mm 6 m/s 763 mmHg 66%
    06:00 +17°C° 0 mm 7 m/s 763 mmHg 61%
    07:00 +20°C° 0 mm 7 m/s 764 mmHg 57%
    08:00 +22°C° 0 mm 7 m/s 764 mmHg 52%
    09:00 +24°C° 0 mm 6 m/s 764 mmHg 45%
    10:00 +26°C° 0 mm 6 m/s 764 mmHg 44%
    11:00 +27°C° 0 mm 5 m/s 765 mmHg 42%
    12:00 +28°C° 0 mm 5 m/s 765 mmHg 40%
    13:00 +27°C° 0 mm 5 m/s 765 mmHg 44%
    14:00 +24°C° 0 mm 6 m/s 765 mmHg 47%
    15:00 +23°C° 0 mm 6 m/s 765 mmHg 49%
    16:00 +23°C° 0 mm 6 m/s 766 mmHg 51%
    17:00 +22°C° 0 mm 5 m/s 766 mmHg 52%
    18:00 +21°C° 0 mm 4 m/s 767 mmHg 54%
    19:00 +21°C° 0 mm 4 m/s 767 mmHg 57%
    20:00 +20°C° 0 mm 3 m/s 768 mmHg 61%
    21:00 +19°C° 0 mm 2 m/s 768 mmHg 64%
    22:00 +19°C° 0 mm 2 m/s 768 mmHg 64%
    23:00 +19°C° 0 mm 2 m/s 768 mmHg 64%

    Demain, 27 Mai, Mercredi

    Heure Température Précipitation Vent Pression Humidité
    00:00 +19°C° 0 mm 2 m/s 768 mmHg 64%
    01:00 +18°C° 0 mm 2 m/s 768 mmHg 65%
    02:00 +18°C° 0 mm 2 m/s 768 mmHg 65%
    03:00 +18°C° 0 mm 2 m/s 768 mmHg 65%
    04:00 +20°C° 0 mm 1 m/s 768 mmHg 63%
    05:00 +21°C° 0 mm 1 m/s 768 mmHg 60%
    06:00 +19°C° 0 mm 0 m/s 769 mmHg 57%
    07:00 +23°C° 0 mm 1 m/s 769 mmHg 53%
    08:00 +24°C° 0 mm 1 m/s 769 mmHg 48%
    09:00 +25°C° 0 mm 2 m/s 769 mmHg 44%
    10:00 +26°C° 0 mm 2 m/s 768 mmHg 42%
    11:00 +26°C° 0 mm 2 m/s 768 mmHg 41%
    12:00 +27°C° 0 mm 3 m/s 768 mmHg 39%
    13:00 +27°C° 0 mm 3 m/s 767 mmHg 40%
    14:00 +27°C° 0 mm 3 m/s 767 mmHg 41%
    15:00 +26°C° 0 mm 4 m/s 766 mmHg 42%
    16:00 +25°C° 0 mm 4 m/s 766 mmHg 47%
    17:00 +23°C° 0 mm 4 m/s 766 mmHg 51%
    18:00 +22°C° 0 mm 4 m/s 766 mmHg 55%
    19:00 +22°C° 0 mm 4 m/s 766 mmHg 60%
    20:00 +21°C° 0 mm 3 m/s 766 mmHg 65%
    21:00 +20°C° 0 mm 3 m/s 766 mmHg 70%
    22:00 +19°C° 0 mm 2 m/s 766 mmHg 71%
    23:00 +19°C° 0 mm 2 m/s 766 mmHg 71%

    Après-demain, 28 Mai, Jeudi

    Heure Température Précipitation Vent Pression Humidité
    00:00 +19°C° 0 mm 2 m/s 765 mmHg 72%
    01:00 +19°C° 0 mm 2 m/s 765 mmHg 73%
    02:00 +18°C° 0 mm 2 m/s 765 mmHg 74%
    03:00 +19°C° 0 mm 1 m/s 765 mmHg 75%
    04:00 +19°C° 0 mm 2 m/s 765 mmHg 72%
    05:00 +20°C° 0 mm 2 m/s 765 mmHg 68%
    06:00 +21°C° 0 mm 2 m/s 765 mmHg 65%
    07:00 +23°C° 0 mm 2 m/s 765 mmHg 60%
    08:00 +24°C° 0 mm 3 m/s 765 mmHg 55%
    09:00 +26°C° 0 mm 3 m/s 764 mmHg 49%
    10:00 +26°C° 0 mm 3 m/s 764 mmHg 48%
    11:00 +27°C° 0 mm 4 m/s 764 mmHg 46%
    12:00 +28°C° 0 mm 4 m/s 763 mmHg 44%
    13:00 +27°C° 0 mm 5 m/s 763 mmHg 45%
    14:00 +27°C° 0 mm 5 m/s 762 mmHg 46%
    15:00 +27°C° 0 mm 5 m/s 761 mmHg 48%
    16:00 +26°C° 0.1 mm 6 m/s 761 mmHg 53%
    17:00 +23°C° 0.1 mm 6 m/s 761 mmHg 58%
    18:00 +22°C° 0.1 mm 6 m/s 761 mmHg 64%
    19:00 +22°C° 0.1 mm 5 m/s 761 mmHg 68%
    20:00 +21°C° 0.1 mm 4 m/s 761 mmHg 72%
    21:00 +20°C° 0.1 mm 3 m/s 761 mmHg 76%
    22:00 +20°C° 0 mm 3 m/s 761 mmHg 75%
    23:00 +20°C° 0 mm 3 m/s 761 mmHg 75%

    29 Mai, Vendredi

    Heure Température Précipitation Vent Pression Humidité
    00:00 +20°C° 0 mm 3 m/s 761 mmHg 75%
    01:00 +20°C° 0 mm 3 m/s 760 mmHg 76%
    02:00 +20°C° 0 mm 3 m/s 760 mmHg 78%
    03:00 +19°C° 0 mm 3 m/s 759 mmHg 79%
    04:00 +20°C° 0 mm 3 m/s 760 mmHg 76%
    05:00 +21°C° 0 mm 3 m/s 760 mmHg 74%
    06:00 +21°C° 0 mm 3 m/s 760 mmHg 71%
    07:00 +24°C° 0 mm 3 m/s 760 mmHg 66%
    08:00 +25°C° 0 mm 3 m/s 759 mmHg 61%
    09:00 +26°C° 0 mm 4 m/s 759 mmHg 56%
    10:00 +26°C° 0 mm 4 m/s 759 mmHg 54%
    11:00 +27°C° 0 mm 5 m/s 758 mmHg 52%
    12:00 +28°C° 0 mm 5 m/s 758 mmHg 51%
    13:00 +27°C° 0 mm 5 m/s 757 mmHg 52%
    14:00 +27°C° 0 mm 5 m/s 756 mmHg 53%
    15:00 +27°C° 0 mm 5 m/s 756 mmHg 54%
    16:00 +26°C° 0.1 mm 5 m/s 756 mmHg 57%
    17:00 +24°C° 0.1 mm 6 m/s 755 mmHg 61%
    18:00 +24°C° 0.1 mm 6 m/s 755 mmHg 64%
    19:00 +23°C° 0 mm 6 m/s 755 mmHg 68%
    20:00 +22°C° 0 mm 5 m/s 755 mmHg 72%
    21:00 +22°C° 0 mm 4 m/s 755 mmHg 76%
    22:00 +21°C° 0 mm 4 m/s 755 mmHg 77%
    23:00 +21°C° 0 mm 3 m/s 754 mmHg 79%

    30 Mai, Samedi

    Heure Température Précipitation Vent Pression Humidité
    00:00 +21°C° 0 mm 2 m/s 754 mmHg 81%
    01:00 +20°C° 0 mm 2 m/s 754 mmHg 82%
    02:00 +20°C° 0 mm 2 m/s 754 mmHg 83%
    03:00 +21°C° 0 mm 1 m/s 754 mmHg 84%
    04:00 +20°C° 0 mm 3 m/s 755 mmHg 82%
    05:00 +21°C° 0 mm 4 m/s 755 mmHg 79%
    06:00 +21°C° 0 mm 5 m/s 756 mmHg 77%
    07:00 +24°C° 0 mm 6 m/s 756 mmHg 67%
    08:00 +27°C° 0 mm 6 m/s 756 mmHg 57%
    09:00 +29°C° 0 mm 7 m/s 757 mmHg 48%
    10:00 +32°C° 0 mm 7 m/s 757 mmHg 44%
    11:00 +33°C° 0 mm 7 m/s 757 mmHg 40%
    12:00 +34°C° 0 mm 7 m/s 758 mmHg 37%
    13:00 +33°C° 0 mm 8 m/s 758 mmHg 43%
    14:00 +31°C° 0 mm 9 m/s 758 mmHg 49%
    15:00 +28°C° 0 mm 10 m/s 758 mmHg 55%
    16:00 +27°C° 0 mm 9 m/s 758 mmHg 58%
    17:00 +26°C° 0 mm 7 m/s 759 mmHg 62%
    18:00 +24°C° 0 mm 6 m/s 759 mmHg 65%
    19:00 +23°C° 0 mm 5 m/s 760 mmHg 67%
    20:00 +22°C° 0 mm 4 m/s 761 mmHg 69%
    21:00 +22°C° 0 mm 3 m/s 761 mmHg 72%
    22:00 +22°C° 0 mm 3 m/s 762 mmHg 72%
    23:00 +21°C° 0 mm 3 m/s 762 mmHg 72%

    31 Mai, Dimanche

    Heure Température Précipitation Vent Pression Humidité
    00:00 +21°C° 0 mm 3 m/s 762 mmHg 72%
    01:00 +21°C° 0 mm 3 m/s 763 mmHg 73%
    02:00 +21°C° 0 mm 3 m/s 763 mmHg 74%
    03:00 +21°C° 0 mm 3 m/s 763 mmHg 75%
    04:00 +21°C° 0 mm 3 m/s 764 mmHg 72%
    05:00 +22°C° 0 mm 3 m/s 764 mmHg 69%
    06:00 +24°C° 0 mm 3 m/s 764 mmHg 66%
    07:00 +25°C° 0 mm 3 m/s 765 mmHg 60%
    08:00 +26°C° 0 mm 3 m/s 765 mmHg 53%
    09:00 +27°C° 0 mm 3 m/s 765 mmHg 47%
    10:00 +27°C° 0 mm 3 m/s 765 mmHg 46%
    11:00 +28°C° 0 mm 4 m/s 764 mmHg 44%
    12:00 +28°C° 0 mm 5 m/s 764 mmHg 43%
    13:00 +28°C° 0 mm 5 m/s 764 mmHg 43%
    14:00 +27°C° 0 mm 5 m/s 763 mmHg 43%
    15:00 +27°C° 0 mm 5 m/s 763 mmHg 42%
    16:00 +26°C° 0 mm 4 m/s 763 mmHg 45%
    17:00 +26°C° 0 mm 4 m/s 762 mmHg 47%
    18:00 +25°C° 0 mm 3 m/s 762 mmHg 49%
    19:00 +24°C° 0 mm 2 m/s 762 mmHg 54%
    20:00 +23°C° 0 mm 2 m/s 762 mmHg 59%
    21:00 +22°C° 0 mm 1 m/s 763 mmHg 63%
    22:00 +22°C° 0 mm 1 m/s 763 mmHg 63%
    23:00 +21°C° 0 mm 2 m/s 762 mmHg 63%
    Voir plus